FLOCK 3P-23 (42018 NORAD) Tracking and Keplerian Element Data

This shows tracking and keplerian element data for the satellite.

Feedback or suggestion? Click here.




ElementValue
Catalog42018
NameFLOCK 3P-23
Epoch Orbit31147
Epoch Day270.10399187
Epoch Year2022
RAAN335.3281
Inclination97.266
Eccentricity0.0007018
Argument of Perigee208.0567
Mean Anonmoly152.0303
Mean Motion15.41121886
Decay Rate0.0006057
L11 42018U 17008BY 22270.10399187 .00060570 00000+0 14544-2 0 9999
L22 42018 97.2660 335.3281 0007018 208.0567 152.0303 15.41121886311473

Live tracking and technical data element details for FLOCK 3P-23 (NORAD 42018). FLOCK 3P-23 can be tracked NOW for your location showing map with azimuth and elevation plus other details from your city location.

Track the satellite on the map from your city or location and see movement details for azimuth, elevation, latitude, longitude, range, height, and movement on the map or in text.







IsCatalogInMostPopularTable: catalog: 42018, numindb: 601
Update: records affected: 1



GetName: 42018 FLOCK 3P-23

Hit Count: updated at: Wed, 28 Sep 2022 21:44:05 GMT